DW0231 Weather Reports


Display with metric or nautical units.
time (UTC)temp
F
wind
direction
speed
MPH
gust
MPH
rain 1hr
in
rain 24hr
in
rain mn
in
humidity
%
barometer
mb
20260507120007 44 251 0.0 0.0 0.00 0.00 0.00 60 1015.2
20260507114600 44 251 0.0 0.0 0.00 0.00 0.00 59 1015.4
20260507113045 44 250 0.0 0.0 0.00 0.00 0.00 58 1015.7
20260507111529 44 251 0.0 0.0 0.00 0.00 0.00 58 1015.7
20260507110016 44 251 0.0 0.0 0.00 0.00 0.00 56 1015.4
20260507104506 44 251 0.0 0.0 0.00 0.00 0.00 56 1015.4
20260507103005 45 251 0.0 0.0 0.00 0.00 0.00 56 1015.5
20260507101551 45 250 0.0 0.0 0.00 0.00 0.00 55 1015.8
20260507100032 45 251 0.0 0.0 0.00 0.00 0.00 55 1015.9
20260507094510 45 251 0.0 0.0 0.00 0.00 0.00 55 1016.0
20260507093101 45 251 0.0 0.0 0.00 0.00 0.00 54 1016.1
20260507091551 45 250 0.0 0.0 0.00 0.00 0.00 53 1016.1
20260507090032 45 251 0.0 0.0 0.00 0.00 0.00 53 1016.2
20260507084534 45 250 0.0 0.0 0.00 0.00 0.00 54 1016.4
20260507083004 45 251 0.0 0.0 0.00 0.00 0.00 53 1016.7
20260507081550 45 251 0.0 0.0 0.00 0.00 0.00 52 1016.7
20260507080021 46 250 0.0 0.0 0.00 0.00 0.00 53 1016.7
20260507074510 46 250 0.0 0.0 0.00 0.00 0.00 52 1016.8
20260507073008 47 250 0.0 0.0 0.00 0.00 0.00 50 1017.0
20260507071605 47 250 0.0 0.0 0.00 0.00 0.00 52 1017.1
20260507064557 46 251 0.0 0.0 0.00 0.00 0.13 51 1017.3
20260507063043 46 251 0.0 0.0 0.00 0.00 0.13 53 1017.3
20260507061509 47 250 0.0 0.0 0.00 0.00 0.13 51 1017.2
20260507060045 47 251 0.0 0.0 0.00 0.00 0.13 50 1017.2
20260507054540 48 251 0.0 0.0 0.00 0.00 0.13 49 1017.1
20260507053013 48 250 0.0 0.0 0.00 0.00 0.13 52 1017.3
20260507051508 48 250 0.0 0.0 0.00 0.00 0.13 48 1017.3
20260507050005 48 251 0.0 0.0 0.00 0.00 0.13 49 1017.4
20260507044556 49 251 0.0 0.0 0.00 0.00 0.13 48 1017.5
20260507043035 49 250 0.0 0.0 0.00 0.00 0.13 48 1017.4
20260507041550 49 250 0.0 0.0 0.00 0.00 0.13 47 1017.0
20260507040042 50 250 0.0 0.0 0.00 0.00 0.13 45 1017.2
20260507034513 51 251 0.0 0.0 0.00 0.00 0.13 46 1017.2
20260507033019 51 251 0.0 0.0 0.00 0.00 0.13 44 1017.0
20260507031507 52 251 0.0 0.0 0.00 0.00 0.13 45 1016.5
20260507030105 53 250 0.0 0.0 0.00 0.00 0.13 42 1016.3
20260507024552 54 251 0.0 0.0 0.00 0.00 0.13 41 1016.3
20260507023030 56 250 0.0 0.0 0.00 0.00 0.13 37 1016.5
20260507021523 58 250 0.0 0.0 0.00 0.00 0.13 32 1016.5
20260507020006 60 250 0.0 0.0 0.00 0.00 0.13 31 1016.6
20260507014623 61 251 0.0 0.0 0.00 0.00 0.13 32 1016.6
20260507013056 61 250 0.0 0.0 0.00 0.00 0.13 28 1016.9
20260507011600 61 251 1.0 0.0 0.00 0.00 0.13 27 1016.8
20260507010040 61 248 1.0 0.0 0.00 0.00 0.13 27 1016.8
20260507004540 61 247 1.0 0.0 0.00 0.00 0.13 28 1016.7
20260507003019 62 229 1.0 0.0 0.00 0.00 0.13 27 1016.9
20260507001515 62 200 3.0 0.0 0.00 0.00 0.13 27 1016.7
20260507000004 62 314 2.0 0.0 0.00 0.00 0.13 26 1016.8
20260506234620 63 252 2.0 0.0 0.00 0.00 0.13 27 1016.7
20260506233100 63 360 2.0 0.0 0.00 0.00 0.13 27 1016.6
20260506231603 63 272 2.0 0.0 0.00 0.00 0.13 26 1016.8
20260506230054 62 28 3.0 0.0 0.00 0.00 0.13 26 1016.8
20260506224538 62 10 2.0 0.0 0.00 0.00 0.13 27 1016.7
20260506223024 62 317 4.0 0.0 0.00 0.00 0.13 28 1017.0
20260506221514 62 355 3.0 0.0 0.00 0.00 0.13 28 1017.1
20260506214603 63 28 3.0 0.0 0.00 0.00 0.13 28 1017.2
20260506213055 62 244 3.0 0.0 0.00 0.00 0.13 29 1017.2
20260506211537 61 360 4.0 0.0 0.00 0.00 0.13 28 1017.1
20260506210031 61 259 4.0 0.0 0.00 0.00 0.13 28 1017.1
20260506204528 61 194 3.0 0.0 0.00 0.00 0.13 27 1017.1
20260506203034 61 350 3.0 0.0 0.00 0.00 0.13 28 1017.2
20260506201540 60 205 2.0 0.0 0.00 0.00 0.13 27 1017.2
20260506200013 59 340 3.0 0.0 0.00 0.00 0.13 28 1017.4
20260506194559 59 355 4.0 0.0 0.00 0.00 0.13 27 1017.5
20260506193049 59 360 3.0 0.0 0.00 0.00 0.13 28 1017.4
20260506191509 57 36 3.0 0.0 0.00 0.00 0.13 28 1017.5
20260506190007 57 338 2.0 0.0 0.00 0.00 0.13 29 1017.5
20260506184510 57 46 3.0 0.0 0.00 0.00 0.13 28 1017.5
20260506183105 56 190 3.0 0.0 0.00 0.00 0.13 28 1017.4
20260506181555 56 315 3.0 0.0 0.00 0.00 0.13 28 1017.5
20260506180033 56 221 3.0 0.0 0.00 0.00 0.13 27 1017.4
20260506174516 56 32 2.0 0.0 0.00 0.00 0.13 30 1017.5
20260506173009 54 46 2.0 0.0 0.00 0.00 0.13 32 1017.4
20260506171557 54 13 3.0 0.0 0.00 0.00 0.13 33 1017.4
20260506170048 53 345 3.0 0.0 0.00 0.00 0.13 33 1017.0
20260506164529 52 360 3.0 0.0 0.00 0.00 0.13 37 1016.9
20260506163020 51 13 4.0 0.0 0.00 0.00 0.13 40 1016.6
20260506161511 51 350 3.0 0.0 0.00 0.00 0.13 42 1016.4
20260506160054 50 20 4.0 0.0 0.00 0.00 0.13 44 1016.2
20260506154533 50 304 3.0 0.0 0.00 0.00 0.13 46 1016.2
20260506153036 49 5 4.0 0.0 0.00 0.00 0.13 46 1016.2
20260506151549 49 5 3.0 0.0 0.00 0.00 0.13 47 1016.1
20260506150039 48 28 4.0 0.0 0.00 0.00 0.13 46 1016.0
20260506144510 49 5 2.0 0.0 0.00 0.00 0.13 45 1015.5
20260506143102 49 5 2.0 0.0 0.00 0.00 0.13 47 1015.6
20260506141539 49 355 2.0 0.0 0.00 0.00 0.13 45 1015.3
20260506140049 48 348 1.0 0.0 0.00 0.00 0.13 46 1015.3
20260506134536 47 44 2.0 0.0 0.00 0.00 0.13 44 1014.9
20260506133039 45 47 3.0 0.0 0.00 0.00 0.13 46 1014.5
20260506131525 44 348 2.0 0.0 0.00 0.00 0.13 49 1014.0
20260506130009 46 347 2.0 0.0 0.00 0.00 0.13 43 1013.6
20260506124604 47 15 1.0 0.0 0.00 0.00 0.13 41 1013.1
20260506123038 48 56 2.0 0.0 0.00 0.00 0.13 39 1012.8
20260506121514 48 9 3.0 0.0 0.00 0.00 0.13 41 1012.3